owner,sensor,date,latitude,longitude,vertical_datum,wind_speed,wind_to_direction,wind_speed_of_gust,qcFlag 
WAVCIS,ioos:station:WAVCIS:CSI16:1,2008-12-09T21:00:00Z,29.4012,-89.0355,10.0,9.33,178.0,,'11111222,11111222,99999999' 
WAVCIS,ioos:station:WAVCIS:CSI16:1,2008-12-09T22:00:00Z,29.4012,-89.0355,10.0,9.24,169.0,,'11111222,11111222,99999999' 
WAVCIS,ioos:station:WAVCIS:CSI16:1,2008-12-09T23:00:00Z,29.4012,-89.0355,10.0,10.93,161.0,,'11111222,11111222,99999999' 
WAVCIS,ioos:station:WAVCIS:CSI16:1,2008-12-10T00:00:00Z,29.4012,-89.0355,10.0,9.79,170.0,,'11111222,11111222,99999999' 
WAVCIS,ioos:station:WAVCIS:CSI16:1,2008-12-10T01:00:00Z,29.4012,-89.0355,10.0,9.83,171.0,,'11111222,11111222,99999999' 
WAVCIS,ioos:station:WAVCIS:CSI16:1,2008-12-10T02:00:00Z,29.4012,-89.0355,10.0,10.86,174.0,,'11111222,11111222,99999999' 
WAVCIS,ioos:station:WAVCIS:CSI16:1,2008-12-10T03:00:00Z,29.4012,-89.0355,10.0,10.05,176.0,,'11111222,11111222,99999999' 
WAVCIS,ioos:station:WAVCIS:CSI16:1,2008-12-10T04:00:00Z,29.4012,-89.0355,10.0,10.41,174.0,,'11111222,11111222,99999999' 
WAVCIS,ioos:station:WAVCIS:CSI16:1,2008-12-10T05:00:00Z,29.4012,-89.0355,10.0,8.63,174.0,,'11111222,11111222,99999999' 
WAVCIS,ioos:station:WAVCIS:CSI16:1,2008-12-10T06:00:00Z,29.4012,-89.0355,10.0,8.98,188.0,,'11111222,11111222,99999999' 
WAVCIS,ioos:station:WAVCIS:CSI16:1,2008-12-10T07:00:00Z,29.4012,-89.0355,10.0,10.17,186.0,,'11111222,11111222,99999999' 
WAVCIS,ioos:station:WAVCIS:CSI16:1,2008-12-10T08:00:00Z,29.4012,-89.0355,10.0,8.73,196.0,,'11111222,11111222,99999999' 
WAVCIS,ioos:station:WAVCIS:CSI16:1,2008-12-10T09:00:00Z,29.4012,-89.0355,10.0,7.44,188.0,,'11111222,11111222,99999999' 
WAVCIS,ioos:station:WAVCIS:CSI16:1,2008-12-10T10:00:00Z,29.4012,-89.0355,10.0,6.135,198.0,,'11111222,11111222,99999999' 
WAVCIS,ioos:station:WAVCIS:CSI16:1,2008-12-10T11:00:00Z,29.4012,-89.0355,10.0,8.57,189.0,,'11111222,11111222,99999999' 
WAVCIS,ioos:station:WAVCIS:CSI16:1,2008-12-10T12:00:00Z,29.4012,-89.0355,10.0,9.37,179.0,,'11111222,11111222,99999999' 
WAVCIS,ioos:station:WAVCIS:CSI16:1,2008-12-10T13:00:00Z,29.4012,-89.0355,10.0,17.11,256.0,,'11111222,11111222,99999999' 
WAVCIS,ioos:station:WAVCIS:CSI16:1,2008-12-10T14:00:00Z,29.4012,-89.0355,10.0,7.93,243.0,,'11111222,11111222,99999999' 
WAVCIS,ioos:station:WAVCIS:CSI16:1,2008-12-10T15:00:00Z,29.4012,-89.0355,10.0,3.729,187.0,,'11111222,11111222,99999999' 
WAVCIS,ioos:station:WAVCIS:CSI16:1,2008-12-10T16:00:00Z,29.4012,-89.0355,10.0,6.527,249.0,,'11111222,11111222,99999999' 
WAVCIS,ioos:station:WAVCIS:CSI16:1,2008-12-10T17:00:00Z,29.4012,-89.0355,10.0,4.694,346.0,,'11111222,11111222,99999999' 
WAVCIS,ioos:station:WAVCIS:CSI16:1,2008-12-10T18:00:00Z,29.4012,-89.0355,10.0,1.807,36.0,,'11111222,11111222,99999999' 
WAVCIS,ioos:station:WAVCIS:CSI16:1,2008-12-10T19:00:00Z,29.4012,-89.0355,10.0,7.45,333.0,,'11111222,11111222,99999999' 
WAVCIS,ioos:station:WAVCIS:CSI16:1,2008-12-10T20:00:00Z,29.4012,-89.0355,10.0,10.06,345.0,,'11111222,11111222,99999999' 
WAVCIS,ioos:station:WAVCIS:CSI16:1,2008-12-10T21:00:00Z,29.4012,-89.0355,10.0,9.75,8.0,,'11111222,11111222,99999999' 
WAVCIS,ioos:station:WAVCIS:CSI16:1,2008-12-10T22:00:00Z,29.4012,-89.0355,10.0,9.87,346.0,,'11111222,11111222,99999999' 
WAVCIS,ioos:station:WAVCIS:CSI16:1,2008-12-10T23:00:00Z,29.4012,-89.0355,10.0,10.88,349.0,,'11111222,11111222,99999999' 
WAVCIS,ioos:station:WAVCIS:CSI16:1,2008-12-11T00:00:00Z,29.4012,-89.0355,10.0,11.08,349.0,,'11111222,11111222,99999999' 
WAVCIS,ioos:station:WAVCIS:CSI16:1,2008-12-11T01:00:00Z,29.4012,-89.0355,10.0,10.95,340.0,,'11111222,11111222,99999999' 
WAVCIS,ioos:station:WAVCIS:CSI16:1,2008-12-11T02:00:00Z,29.4012,-89.0355,10.0,11.62,329.0,,'11111222,11111222,99999999' 
WAVCIS,ioos:station:WAVCIS:CSI16:1,2008-12-11T03:00:00Z,29.4012,-89.0355,10.0,12.0,288.0,,'11111222,11111222,99999999' 
WAVCIS,ioos:station:WAVCIS:CSI16:1,2008-12-11T04:00:00Z,29.4012,-89.0355,10.0,12.9,336.0,,'11111222,11111222,99999999' 
WAVCIS,ioos:station:WAVCIS:CSI16:1,2008-12-11T05:00:00Z,29.4012,-89.0355,10.0,12.04,289.0,,'11111222,11111222,99999999' 
WAVCIS,ioos:station:WAVCIS:CSI16:1,2008-12-11T06:00:00Z,29.4012,-89.0355,10.0,11.64,317.0,,'11111222,11111222,99999999' 
WAVCIS,ioos:station:WAVCIS:CSI16:1,2008-12-11T07:00:00Z,29.4012,-89.0355,10.0,7.56,305.0,,'11111222,11111222,99999999' 
WAVCIS,ioos:station:WAVCIS:CSI16:1,2008-12-11T08:00:00Z,29.4012,-89.0355,10.0,5.862,300.0,,'11111222,11111222,99999999' 
WAVCIS,ioos:station:WAVCIS:CSI16:1,2008-12-11T09:00:00Z,29.4012,-89.0355,10.0,12.05,266.0,,'11111222,11111222,99999999' 
WAVCIS,ioos:station:WAVCIS:CSI16:1,2008-12-11T10:00:00Z,29.4012,-89.0355,10.0,12.95,271.0,,'11111222,11111222,99999999' 
WAVCIS,ioos:station:WAVCIS:CSI16:1,2008-12-11T11:00:00Z,29.4012,-89.0355,10.0,12.65,266.0,,'11111222,11111222,99999999' 
WAVCIS,ioos:station:WAVCIS:CSI16:1,2008-12-11T12:00:00Z,29.4012,-89.0355,10.0,14.17,274.0,,'11111222,11111222,99999999' 
WAVCIS,ioos:station:WAVCIS:CSI16:1,2008-12-11T13:00:00Z,29.4012,-89.0355,10.0,14.22,277.0,,'11111222,11111222,99999999' 
WAVCIS,ioos:station:WAVCIS:CSI16:1,2008-12-11T14:00:00Z,29.4012,-89.0355,10.0,15.53,272.0,,'11111222,11111222,99999999' 
WAVCIS,ioos:station:WAVCIS:CSI16:1,2008-12-11T15:00:00Z,29.4012,-89.0355,10.0,15.97,270.0,,'11111222,11111222,99999999' 
WAVCIS,ioos:station:WAVCIS:CSI16:1,2008-12-11T16:00:00Z,29.4012,-89.0355,10.0,16.09,275.0,,'11111222,11111222,99999999' 
WAVCIS,ioos:station:WAVCIS:CSI16:1,2008-12-11T17:00:00Z,29.4012,-89.0355,10.0,14.59,265.0,,'11111222,11111222,99999999' 
WAVCIS,ioos:station:WAVCIS:CSI16:1,2008-12-11T18:00:00Z,29.4012,-89.0355,10.0,14.75,276.0,,'11111222,11111222,99999999' 
WAVCIS,ioos:station:WAVCIS:CSI16:1,2008-12-11T19:00:00Z,29.4012,-89.0355,10.0,13.09,282.0,,'11111222,11111222,99999999' 
WAVCIS,ioos:station:WAVCIS:CSI16:1,2008-12-11T20:00:00Z,29.4012,-89.0355,10.0,12.19,293.0,,'11111222,11111222,99999999' 
WAVCIS,ioos:station:WAVCIS:CSI16:1,2008-12-11T21:00:00Z,29.4012,-89.0355,10.0,12.19,288.0,,'11111222,11111222,99999999' 
WAVCIS,ioos:station:WAVCIS:CSI16:1,2008-12-11T22:00:00Z,29.4012,-89.0355,10.0,12.19,305.0,,'11111222,11111222,99999999' 
WAVCIS,ioos:station:WAVCIS:CSI16:1,2008-12-11T23:00:00Z,29.4012,-89.0355,10.0,12.94,310.0,,'11111222,11111222,99999999' 
WAVCIS,ioos:station:WAVCIS:CSI16:1,2008-12-12T00:00:00Z,29.4012,-89.0355,10.0,17.72,325.0,,'11111222,11111222,99999999' 
WAVCIS,ioos:station:WAVCIS:CSI16:1,2008-12-12T01:00:00Z,29.4012,-89.0355,10.0,16.81,329.0,,'11111222,11111222,99999999' 
WAVCIS,ioos:station:WAVCIS:CSI16:1,2008-12-12T02:00:00Z,29.4012,-89.0355,10.0,16.46,335.0,,'11111222,11111222,99999999' 
WAVCIS,ioos:station:WAVCIS:CSI16:1,2008-12-12T03:00:00Z,29.4012,-89.0355,10.0,14.96,340.0,,'11111222,11111222,99999999' 
WAVCIS,ioos:station:WAVCIS:CSI16:1,2008-12-12T04:00:00Z,29.4012,-89.0355,10.0,14.29,343.0,,'11111222,11111222,99999999' 
WAVCIS,ioos:station:WAVCIS:CSI16:1,2008-12-12T05:00:00Z,29.4012,-89.0355,10.0,13.49,349.0,,'11111222,11111222,99999999' 
WAVCIS,ioos:station:WAVCIS:CSI16:1,2008-12-12T06:00:00Z,29.4012,-89.0355,10.0,13.1,346.0,,'11111222,11111222,99999999' 
WAVCIS,ioos:station:WAVCIS:CSI16:1,2008-12-12T07:00:00Z,29.4012,-89.0355,10.0,12.67,348.0,,'11111222,11111222,99999999' 
WAVCIS,ioos:station:WAVCIS:CSI16:1,2008-12-12T08:00:00Z,29.4012,-89.0355,10.0,11.87,351.0,,'11111222,11111222,99999999' 
WAVCIS,ioos:station:WAVCIS:CSI16:1,2008-12-12T09:00:00Z,29.4012,-89.0355,10.0,11.23,348.0,,'11111222,11111222,99999999' 
WAVCIS,ioos:station:WAVCIS:CSI16:1,2008-12-12T10:00:00Z,29.4012,-89.0355,10.0,10.89,347.0,,'11111222,11111222,99999999' 
WAVCIS,ioos:station:WAVCIS:CSI16:1,2008-12-12T11:00:00Z,29.4012,-89.0355,10.0,9.93,349.0,,'11111222,11111222,99999999' 
WAVCIS,ioos:station:WAVCIS:CSI16:1,2008-12-12T12:00:00Z,29.4012,-89.0355,10.0,10.84,355.0,,'11111222,11111222,99999999' 
WAVCIS,ioos:station:WAVCIS:CSI16:1,2008-12-12T13:00:00Z,29.4012,-89.0355,10.0,10.81,3.0,,'11111222,11111222,99999999' 
WAVCIS,ioos:station:WAVCIS:CSI16:1,2008-12-12T14:00:00Z,29.4012,-89.0355,10.0,10.22,4.0,,'11111222,11111222,99999999' 
WAVCIS,ioos:station:WAVCIS:CSI16:1,2008-12-12T15:00:00Z,29.4012,-89.0355,10.0,9.06,5.0,,'11111222,11111222,99999999' 
WAVCIS,ioos:station:WAVCIS:CSI16:1,2008-12-12T16:00:00Z,29.4012,-89.0355,10.0,8.43,2.0,,'11111222,11111222,99999999' 
WAVCIS,ioos:station:WAVCIS:CSI16:1,2008-12-12T17:00:00Z,29.4012,-89.0355,10.0,7.7,7.0,,'11111222,11111222,99999999' 
WAVCIS,ioos:station:WAVCIS:CSI16:1,2008-12-12T18:00:00Z,29.4012,-89.0355,10.0,6.53,5.0,,'11111222,11111222,99999999' 
WAVCIS,ioos:station:WAVCIS:CSI16:1,2008-12-12T19:00:00Z,29.4012,-89.0355,10.0,5.871,346.0,,'11111222,11111222,99999999' 
WAVCIS,ioos:station:WAVCIS:CSI16:1,2008-12-12T20:00:00Z,29.4012,-89.0355,10.0,6.34,343.0,,'11111222,11111222,99999999' 
WAVCIS,ioos:station:WAVCIS:CSI16:1,2008-12-12T21:00:00Z,29.4012,-89.0355,10.0,6.775,350.0,,'11111222,11111222,99999999' 
WAVCIS,ioos:station:WAVCIS:CSI16:1,2008-12-12T22:00:00Z,29.4012,-89.0355,10.0,3.993,317.0,,'11111222,11111222,99999999' 
WAVCIS,ioos:station:WAVCIS:CSI16:1,2008-12-12T23:00:00Z,29.4012,-89.0355,10.0,3.28,301.0,,'11111222,11111222,99999999' 
WAVCIS,ioos:station:WAVCIS:CSI16:1,2008-12-13T00:00:00Z,29.4012,-89.0355,10.0,3.219,307.0,,'11111222,11111222,99999999' 
WAVCIS,ioos:station:WAVCIS:CSI16:1,2008-12-13T01:00:00Z,29.4012,-89.0355,10.0,5.105,323.0,,'11111222,11111222,99999999' 
WAVCIS,ioos:station:WAVCIS:CSI16:1,2008-12-13T02:00:00Z,29.4012,-89.0355,10.0,5.253,334.0,,'11111222,11111222,99999999' 
WAVCIS,ioos:station:WAVCIS:CSI16:1,2008-12-13T03:00:00Z,29.4012,-89.0355,10.0,5.374,352.0,,'11111222,11111222,99999999' 
WAVCIS,ioos:station:WAVCIS:CSI16:1,2008-12-13T04:00:00Z,29.4012,-89.0355,10.0,4.77,12.0,,'11111222,11111222,99999999' 
WAVCIS,ioos:station:WAVCIS:CSI16:1,2008-12-13T05:00:00Z,29.4012,-89.0355,10.0,5.906,13.0,,'11111222,11111222,99999999' 
WAVCIS,ioos:station:WAVCIS:CSI16:1,2008-12-13T06:00:00Z,29.4012,-89.0355,10.0,4.652,8.0,,'11111222,11111222,99999999' 
WAVCIS,ioos:station:WAVCIS:CSI16:1,2008-12-13T07:00:00Z,29.4012,-89.0355,10.0,3.412,47.0,,'11111222,11111222,99999999' 
WAVCIS,ioos:station:WAVCIS:CSI16:1,2008-12-13T08:00:00Z,29.4012,-89.0355,10.0,4.137,58.0,,'11111222,11111222,99999999' 
WAVCIS,ioos:station:WAVCIS:CSI16:1,2008-12-13T09:00:00Z,29.4012,-89.0355,10.0,4.601,68.0,,'11111222,11111222,99999999' 
WAVCIS,ioos:station:WAVCIS:CSI16:1,2008-12-13T10:00:00Z,29.4012,-89.0355,10.0,5.372,65.0,,'11111222,11111222,99999999' 
WAVCIS,ioos:station:WAVCIS:CSI16:1,2008-12-13T11:00:00Z,29.4012,-89.0355,10.0,4.584,79.0,,'11111222,11111222,99999999' 
WAVCIS,ioos:station:WAVCIS:CSI16:1,2008-12-13T12:00:00Z,29.4012,-89.0355,10.0,4.504,82.0,,'11111222,11111222,99999999' 
WAVCIS,ioos:station:WAVCIS:CSI16:1,2008-12-13T13:00:00Z,29.4012,-89.0355,10.0,6.984,95.0,,'11111222,11111222,99999999' 
WAVCIS,ioos:station:WAVCIS:CSI16:1,2008-12-13T14:00:00Z,29.4012,-89.0355,10.0,6.656,102.0,,'11111222,11111222,99999999' 
WAVCIS,ioos:station:WAVCIS:CSI16:1,2008-12-13T15:00:00Z,29.4012,-89.0355,10.0,7.9,119.0,,'11111222,11111222,99999999' 
WAVCIS,ioos:station:WAVCIS:CSI16:1,2008-12-13T16:00:00Z,29.4012,-89.0355,10.0,7.32,110.0,,'11111222,11111222,99999999' 
WAVCIS,ioos:station:WAVCIS:CSI16:1,2008-12-13T17:00:00Z,29.4012,-89.0355,10.0,9.28,115.0,,'11111222,11111222,99999999' 
WAVCIS,ioos:station:WAVCIS:CSI16:1,2008-12-13T18:00:00Z,29.4012,-89.0355,10.0,7.92,132.0,,'11111222,11111222,99999999' 
WAVCIS,ioos:station:WAVCIS:CSI16:1,2008-12-13T19:00:00Z,29.4012,-89.0355,10.0,8.24,132.0,,'11111222,11111222,99999999' 
WAVCIS,ioos:station:WAVCIS:CSI16:1,2008-12-13T20:00:00Z,29.4012,-89.0355,10.0,7.25,132.0,,'11111222,11111222,99999999' 
WAVCIS,ioos:station:WAVCIS:CSI16:1,2008-12-13T21:00:00Z,29.4012,-89.0355,10.0,7.97,132.0,,'11111222,11111222,99999999' 
WAVCIS,ioos:station:WAVCIS:CSI16:1,2008-12-13T22:00:00Z,29.4012,-89.0355,10.0,8.52,139.0,,'11111222,11111222,99999999' 
WAVCIS,ioos:station:WAVCIS:CSI16:1,2008-12-13T23:00:00Z,29.4012,-89.0355,10.0,8.8,140.0,,'11111222,11111222,99999999' 
WAVCIS,ioos:station:WAVCIS:CSI16:1,2008-12-14T00:00:00Z,29.4012,-89.0355,10.0,7.97,147.0,,'11111222,11111222,99999999' 
WAVCIS,ioos:station:WAVCIS:CSI16:1,2008-12-14T01:00:00Z,29.4012,-89.0355,10.0,6.868,146.0,,'11111222,11111222,99999999' 
WAVCIS,ioos:station:WAVCIS:CSI16:1,2008-12-14T02:00:00Z,29.4012,-89.0355,10.0,5.699,143.0,,'11111222,11111222,99999999' 
WAVCIS,ioos:station:WAVCIS:CSI16:1,2008-12-14T03:00:00Z,29.4012,-89.0355,10.0,8.59,137.0,,'11111222,11111222,99999999' 
WAVCIS,ioos:station:WAVCIS:CSI16:1,2008-12-14T04:00:00Z,29.4012,-89.0355,10.0,8.13,140.0,,'11111222,11111222,99999999' 
WAVCIS,ioos:station:WAVCIS:CSI16:1,2008-12-14T05:00:00Z,29.4012,-89.0355,10.0,10.36,126.0,,'11111222,11111222,99999999' 
WAVCIS,ioos:station:WAVCIS:CSI16:1,2008-12-14T06:00:00Z,29.4012,-89.0355,10.0,12.05,129.0,,'11111222,11111222,99999999' 
WAVCIS,ioos:station:WAVCIS:CSI16:1,2008-12-14T07:00:00Z,29.4012,-89.0355,10.0,10.78,130.0,,'11111222,11111222,99999999' 
WAVCIS,ioos:station:WAVCIS:CSI16:1,2008-12-14T08:00:00Z,29.4012,-89.0355,10.0,11.18,126.0,,'11111222,11111222,99999999' 
WAVCIS,ioos:station:WAVCIS:CSI16:1,2008-12-14T09:00:00Z,29.4012,-89.0355,10.0,11.12,129.0,,'11111222,11111222,99999999' 
WAVCIS,ioos:station:WAVCIS:CSI16:1,2008-12-14T10:00:00Z,29.4012,-89.0355,10.0,7.58,131.0,,'11111222,11111222,99999999' 
WAVCIS,ioos:station:WAVCIS:CSI16:1,2008-12-14T11:00:00Z,29.4012,-89.0355,10.0,9.26,137.0,,'11111222,11111222,99999999' 
WAVCIS,ioos:station:WAVCIS:CSI16:1,2008-12-14T12:00:00Z,29.4012,-89.0355,10.0,4.751,150.0,,'11111222,11111222,99999999' 
WAVCIS,ioos:station:WAVCIS:CSI16:1,2008-12-14T13:00:00Z,29.4012,-89.0355,10.0,7.12,153.0,,'11111222,11111222,99999999' 
WAVCIS,ioos:station:WAVCIS:CSI16:1,2008-12-14T14:00:00Z,29.4012,-89.0355,10.0,6.345,138.0,,'11111222,11111222,99999999' 
WAVCIS,ioos:station:WAVCIS:CSI16:1,2008-12-14T15:00:00Z,29.4012,-89.0355,10.0,6.042,112.0,,'11111222,11111222,99999999' 
WAVCIS,ioos:station:WAVCIS:CSI16:1,2008-12-14T16:00:00Z,29.4012,-89.0355,10.0,8.71,115.0,,'11111222,11111222,99999999' 
WAVCIS,ioos:station:WAVCIS:CSI16:1,2008-12-14T17:00:00Z,29.4012,-89.0355,10.0,8.94,118.0,,'11111222,11111222,99999999' 
WAVCIS,ioos:station:WAVCIS:CSI16:1,2008-12-14T18:00:00Z,29.4012,-89.0355,10.0,8.26,118.0,,'11111222,11111222,99999999' 
WAVCIS,ioos:station:WAVCIS:CSI16:1,2008-12-14T19:00:00Z,29.4012,-89.0355,10.0,6.681,115.0,,'11111222,11111222,99999999' 
WAVCIS,ioos:station:WAVCIS:CSI16:1,2008-12-14T20:00:00Z,29.4012,-89.0355,10.0,8.66,133.0,,'11111222,11111222,99999999' 
WAVCIS,ioos:station:WAVCIS:CSI16:1,2008-12-14T21:00:00Z,29.4012,-89.0355,10.0,7.7,140.0,,'11111222,11111222,99999999' 
WAVCIS,ioos:station:WAVCIS:CSI16:1,2008-12-14T22:00:00Z,29.4012,-89.0355,10.0,8.69,138.0,,'11111222,11111222,99999999' 
WAVCIS,ioos:station:WAVCIS:CSI16:1,2008-12-14T23:00:00Z,29.4012,-89.0355,10.0,8.47,138.0,,'11111222,11111222,99999999' 
WAVCIS,ioos:station:WAVCIS:CSI16:1,2008-12-15T00:00:00Z,29.4012,-89.0355,10.0,8.1,147.0,,'11111222,11111222,99999999' 
WAVCIS,ioos:station:WAVCIS:CSI16:1,2008-12-15T01:00:00Z,29.4012,-89.0355,10.0,9.08,146.0,,'11111222,11111222,99999999' 
WAVCIS,ioos:station:WAVCIS:CSI16:1,2008-12-15T02:00:00Z,29.4012,-89.0355,10.0,9.03,141.0,,'11111222,11111222,99999999' 
WAVCIS,ioos:station:WAVCIS:CSI16:1,2008-12-15T03:00:00Z,29.4012,-89.0355,10.0,7.84,134.0,,'11111222,11111222,99999999' 
WAVCIS,ioos:station:WAVCIS:CSI16:1,2008-12-15T04:00:00Z,29.4012,-89.0355,10.0,8.15,137.0,,'11111222,11111222,99999999' 
WAVCIS,ioos:station:WAVCIS:CSI16:1,2008-12-15T05:00:00Z,29.4012,-89.0355,10.0,6.823,132.0,,'11111222,11111222,99999999' 
WAVCIS,ioos:station:WAVCIS:CSI16:1,2008-12-15T06:00:00Z,29.4012,-89.0355,10.0,7.04,148.0,,'11111222,11111222,99999999' 
WAVCIS,ioos:station:WAVCIS:CSI16:1,2008-12-15T07:00:00Z,29.4012,-89.0355,10.0,6.67,172.0,,'11111222,11111222,99999999' 
WAVCIS,ioos:station:WAVCIS:CSI16:1,2008-12-15T08:00:00Z,29.4012,-89.0355,10.0,7.47,195.0,,'11111222,11111222,99999999' 
WAVCIS,ioos:station:WAVCIS:CSI16:1,2008-12-15T09:00:00Z,29.4012,-89.0355,10.0,5.64,190.0,,'11111222,11111222,99999999' 
WAVCIS,ioos:station:WAVCIS:CSI16:1,2008-12-15T10:00:00Z,29.4012,-89.0355,10.0,2.334,171.0,,'11111222,11111222,99999999' 
WAVCIS,ioos:station:WAVCIS:CSI16:1,2008-12-15T11:00:00Z,29.4012,-89.0355,10.0,2.23,168.0,,'11111222,11111222,99999999' 
WAVCIS,ioos:station:WAVCIS:CSI16:1,2008-12-15T12:00:00Z,29.4012,-89.0355,10.0,2.01,117.0,,'11111222,11111222,99999999' 
WAVCIS,ioos:station:WAVCIS:CSI16:1,2008-12-15T13:00:00Z,29.4012,-89.0355,10.0,2.823,71.0,,'11111222,11111222,99999999' 
WAVCIS,ioos:station:WAVCIS:CSI16:1,2008-12-15T14:00:00Z,29.4012,-89.0355,10.0,4.737,93.0,,'11111222,11111222,99999999' 
WAVCIS,ioos:station:WAVCIS:CSI16:1,2008-12-15T15:00:00Z,29.4012,-89.0355,10.0,6.721,153.0,,'11111222,11111222,99999999' 
WAVCIS,ioos:station:WAVCIS:CSI16:1,2008-12-15T16:00:00Z,29.4012,-89.0355,10.0,4.544,93.0,,'11111222,11111222,99999999' 
WAVCIS,ioos:station:WAVCIS:CSI16:1,2008-12-15T17:00:00Z,29.4012,-89.0355,10.0,4.521,70.0,,'11111222,11111222,99999999' 
WAVCIS,ioos:station:WAVCIS:CSI16:1,2008-12-15T18:00:00Z,29.4012,-89.0355,10.0,4.542,70.0,,'11111222,11111222,99999999' 
WAVCIS,ioos:station:WAVCIS:CSI16:1,2008-12-15T19:00:00Z,29.4012,-89.0355,10.0,4.118,65.0,,'11111222,11111222,99999999' 
WAVCIS,ioos:station:WAVCIS:CSI16:1,2008-12-15T20:00:00Z,29.4012,-89.0355,10.0,6.075,92.0,,'11111222,11111222,99999999' 
WAVCIS,ioos:station:WAVCIS:CSI16:1,2008-12-15T21:00:00Z,29.4012,-89.0355,10.0,5.475,98.0,,'11111222,11111222,99999999' 
WAVCIS,ioos:station:WAVCIS:CSI16:1,2008-12-15T22:00:00Z,29.4012,-89.0355,10.0,6.16,104.0,,'11111222,11111222,99999999' 
WAVCIS,ioos:station:WAVCIS:CSI16:1,2008-12-15T23:00:00Z,29.4012,-89.0355,10.0,6.397,107.0,,'11111222,11111222,99999999' 
WAVCIS,ioos:station:WAVCIS:CSI16:1,2008-12-16T00:00:00Z,29.4012,-89.0355,10.0,5.978,104.0,,'11111222,11111222,99999999' 
WAVCIS,ioos:station:WAVCIS:CSI16:1,2008-12-16T01:00:00Z,29.4012,-89.0355,10.0,6.222,135.0,,'11111222,11111222,99999999' 
WAVCIS,ioos:station:WAVCIS:CSI16:1,2008-12-16T02:00:00Z,29.4012,-89.0355,10.0,5.541,147.0,,'11111222,11111222,99999999' 
WAVCIS,ioos:station:WAVCIS:CSI16:1,2008-12-16T03:00:00Z,29.4012,-89.0355,10.0,5.801,145.0,,'11111222,11111222,99999999' 
WAVCIS,ioos:station:WAVCIS:CSI16:1,2008-12-16T04:00:00Z,29.4012,-89.0355,10.0,6.309,154.0,,'11111222,11111222,99999999' 
WAVCIS,ioos:station:WAVCIS:CSI16:1,2008-12-16T05:00:00Z,29.4012,-89.0355,10.0,6.252,157.0,,'11111222,11111222,99999999' 
WAVCIS,ioos:station:WAVCIS:CSI16:1,2008-12-16T06:00:00Z,29.4012,-89.0355,10.0,7.67,179.0,,'11111222,11111222,99999999' 
WAVCIS,ioos:station:WAVCIS:CSI16:1,2008-12-16T07:00:00Z,29.4012,-89.0355,10.0,5.949,176.0,,'11111222,11111222,99999999' 
WAVCIS,ioos:station:WAVCIS:CSI16:1,2008-12-16T08:00:00Z,29.4012,-89.0355,10.0,7.25,181.0,,'11111222,11111222,99999999' 
WAVCIS,ioos:station:WAVCIS:CSI16:1,2008-12-16T09:00:00Z,29.4012,-89.0355,10.0,5.929,189.0,,'11111222,11111222,99999999' 
WAVCIS,ioos:station:WAVCIS:CSI16:1,2008-12-16T10:00:00Z,29.4012,-89.0355,10.0,4.848,238.0,,'11111222,11111222,99999999' 
WAVCIS,ioos:station:WAVCIS:CSI16:1,2008-12-16T11:00:00Z,29.4012,-89.0355,10.0,4.069,195.0,,'11111222,11111222,99999999' 
WAVCIS,ioos:station:WAVCIS:CSI16:1,2008-12-16T12:00:00Z,29.4012,-89.0355,10.0,4.779,180.0,,'11111222,11111222,99999999' 
WAVCIS,ioos:station:WAVCIS:CSI16:1,2008-12-16T13:00:00Z,29.4012,-89.0355,10.0,4.453,213.0,,'11111222,11111222,99999999' 
WAVCIS,ioos:station:WAVCIS:CSI16:1,2008-12-16T14:00:00Z,29.4012,-89.0355,10.0,4.564,204.0,,'11111222,11111222,99999999' 
WAVCIS,ioos:station:WAVCIS:CSI16:1,2008-12-16T15:00:00Z,29.4012,-89.0355,10.0,4.319,199.0,,'11111222,11111222,99999999' 
WAVCIS,ioos:station:WAVCIS:CSI16:1,2008-12-16T16:00:00Z,29.4012,-89.0355,10.0,3.201,239.0,,'11111222,11111222,99999999' 
WAVCIS,ioos:station:WAVCIS:CSI16:1,2008-12-16T17:00:00Z,29.4012,-89.0355,10.0,3.115,185.0,,'11111222,11111222,99999999' 
WAVCIS,ioos:station:WAVCIS:CSI16:1,2008-12-16T18:00:00Z,29.4012,-89.0355,10.0,3.686,173.0,,'11111222,11111222,99999999' 
WAVCIS,ioos:station:WAVCIS:CSI16:1,2008-12-16T19:00:00Z,29.4012,-89.0355,10.0,5.531,158.0,,'11111222,11111222,99999999' 
WAVCIS,ioos:station:WAVCIS:CSI16:1,2008-12-16T20:00:00Z,29.4012,-89.0355,10.0,6.208,157.0,,'11111222,11111222,99999999' 
WAVCIS,ioos:station:WAVCIS:CSI16:1,2008-12-16T21:00:00Z,29.4012,-89.0355,10.0,6.722,167.0,,'11111222,11111222,99999999' 
WAVCIS,ioos:station:WAVCIS:CSI16:1,2008-12-16T22:00:00Z,29.4012,-89.0355,10.0,5.442,179.0,,'11111222,11111222,99999999' 
WAVCIS,ioos:station:WAVCIS:CSI16:1,2008-12-16T23:00:00Z,29.4012,-89.0355,10.0,6.563,180.0,,'11111222,11111222,99999999' 
WAVCIS,ioos:station:WAVCIS:CSI16:1,2008-12-17T00:00:00Z,29.4012,-89.0355,10.0,4.815,175.0,,'11111222,11111222,99999999' 
WAVCIS,ioos:station:WAVCIS:CSI16:1,2008-12-17T01:00:00Z,29.4012,-89.0355,10.0,5.398,174.0,,'11111222,11111222,99999999' 
WAVCIS,ioos:station:WAVCIS:CSI16:1,2008-12-17T02:00:00Z,29.4012,-89.0355,10.0,5.845,175.0,,'11111222,11111222,99999999' 
WAVCIS,ioos:station:WAVCIS:CSI16:1,2008-12-17T03:00:00Z,29.4012,-89.0355,10.0,5.969,175.0,,'11111222,11111222,99999999' 
WAVCIS,ioos:station:WAVCIS:CSI16:1,2008-12-17T04:00:00Z,29.4012,-89.0355,10.0,6.055,171.0,,'11111222,11111222,99999999' 
WAVCIS,ioos:station:WAVCIS:CSI16:1,2008-12-17T05:00:00Z,29.4012,-89.0355,10.0,6.575,172.0,,'11111222,11111222,99999999' 
WAVCIS,ioos:station:WAVCIS:CSI16:1,2008-12-17T06:00:00Z,29.4012,-89.0355,10.0,6.087,172.0,,'11111222,11111222,99999999' 
WAVCIS,ioos:station:WAVCIS:CSI16:1,2008-12-17T07:00:00Z,29.4012,-89.0355,10.0,6.334,176.0,,'11111222,11111222,99999999' 
WAVCIS,ioos:station:WAVCIS:CSI16:1,2008-12-17T08:00:00Z,29.4012,-89.0355,10.0,6.439,181.0,,'11111222,11111222,99999999' 
WAVCIS,ioos:station:WAVCIS:CSI16:1,2008-12-17T09:00:00Z,29.4012,-89.0355,10.0,4.806,172.0,,'11111222,11111222,99999999' 
WAVCIS,ioos:station:WAVCIS:CSI16:1,2008-12-17T10:00:00Z,29.4012,-89.0355,10.0,3.471,175.0,,'11111222,11111222,99999999' 
WAVCIS,ioos:station:WAVCIS:CSI16:1,2008-12-17T11:00:00Z,29.4012,-89.0355,10.0,3.275,166.0,,'11111222,11111222,99999999' 
WAVCIS,ioos:station:WAVCIS:CSI16:1,2008-12-17T12:00:00Z,29.4012,-89.0355,10.0,3.365,158.0,,'11111222,11111222,99999999' 
WAVCIS,ioos:station:WAVCIS:CSI16:1,2008-12-17T13:00:00Z,29.4012,-89.0355,10.0,2.878,135.0,,'11111222,11111222,99999999' 
WAVCIS,ioos:station:WAVCIS:CSI16:1,2008-12-17T14:00:00Z,29.4012,-89.0355,10.0,3.068,119.0,,'11111222,11111222,99999999' 
WAVCIS,ioos:station:WAVCIS:CSI16:1,2008-12-17T15:00:00Z,29.4012,-89.0355,10.0,3.479,136.0,,'11111222,11111222,99999999' 
WAVCIS,ioos:station:WAVCIS:CSI16:1,2008-12-17T16:00:00Z,29.4012,-89.0355,10.0,3.879,127.0,,'11111222,11111222,99999999' 
WAVCIS,ioos:station:WAVCIS:CSI16:1,2008-12-17T17:00:00Z,29.4012,-89.0355,10.0,5.165,130.0,,'11111222,11111222,99999999' 
WAVCIS,ioos:station:WAVCIS:CSI16:1,2008-12-17T18:00:00Z,29.4012,-89.0355,10.0,5.473,140.0,,'11111222,11111222,99999999' 
WAVCIS,ioos:station:WAVCIS:CSI16:1,2008-12-17T19:00:00Z,29.4012,-89.0355,10.0,3.901,144.0,,'11111222,11111222,99999999' 
WAVCIS,ioos:station:WAVCIS:CSI16:1,2008-12-17T20:00:00Z,29.4012,-89.0355,10.0,3.309,153.0,,'11111222,11111222,99999999' 
WAVCIS,ioos:station:WAVCIS:CSI16:1,2008-12-17T21:00:00Z,29.4012,-89.0355,10.0,4.252,128.0,,'11111222,11111222,99999999' 
WAVCIS,ioos:station:WAVCIS:CSI16:1,2008-12-17T22:00:00Z,29.4012,-89.0355,10.0,4.326,124.0,,'11111222,11111222,99999999' 
WAVCIS,ioos:station:WAVCIS:CSI16:1,2008-12-17T23:00:00Z,29.4012,-89.0355,10.0,3.917,112.0,,'11111222,11111222,99999999' 
WAVCIS,ioos:station:WAVCIS:CSI16:1,2008-12-18T00:00:00Z,29.4012,-89.0355,10.0,3.794,110.0,,'11111222,11111222,99999999' 
WAVCIS,ioos:station:WAVCIS:CSI16:1,2008-12-18T01:00:00Z,29.4012,-89.0355,10.0,3.473,100.0,,'11111222,11111222,99999999' 
WAVCIS,ioos:station:WAVCIS:CSI16:1,2008-12-18T02:00:00Z,29.4012,-89.0355,10.0,4.793,111.0,,'11111222,11111222,99999999' 